KT4FD Weather Reports


time (UTC)temp
C
wind
direction
speed
KPH
gust
KPH
rain 1hr
cm
rain 24hr
cm
rain mn
cm
humidity
%
barometer
mb
20260903045002 22 30 0.0 4.8 0.00 0.00 0.00 90 1019.3
20260903044003 22 30 0.0 0.0 0.00 0.00 0.00 90 1019.1
20260903043003 22 30 0.0 0.0 0.00 0.00 0.00 90 1019.1
20260903042003 22 30 0.0 0.0 0.00 0.00 0.00 90 1019.0
20260903041003 22 30 0.0 0.0 0.00 0.00 0.00 90 1019.0
20260903040003 22 30 0.0 0.0 0.00 0.00 0.00 90 1019.1
20260903035003 22 30 0.0 0.0 0.00 0.00 0.00 90 1019.1
20260903034003 22 30 0.0 0.0 0.00 0.00 0.00 90 1019.2
20260903033003 22 30 0.0 0.0 0.00 0.00 0.00 90 1019.3
20260903032003 23 30 0.0 0.0 0.00 0.00 0.00 90 1019.5
20260903031003 23 30 0.0 0.0 0.00 0.00 0.00 89 1019.4
20260903030003 23 30 0.0 0.0 0.00 0.00 0.00 89 1019.4
20260903025003 23 30 0.0 1.6 0.00 0.00 0.00 89 1019.3
20260903014003 24 30 0.0 0.0 0.00 0.00 0.00 88 1019.1
20260903013003 24 30 0.0 0.0 0.00 0.00 0.00 89 1018.9
20260903012003 24 30 0.0 0.0 0.00 0.00 0.00 88 1018.8
20260903011003 25 30 0.0 0.0 0.00 0.00 0.00 88 1018.6
20260903010003 25 30 0.0 0.0 0.00 0.00 0.00 87 1018.5
20260903005003 25 30 0.0 0.0 0.00 0.00 0.00 87 1018.4
20260903004003 26 30 0.0 0.0 0.00 0.00 0.00 86 1018.4
20260902233003 31 29 0.0 0.0 0.00 0.00 0.00 66 1018.1
20260902232003 32 29 0.0 0.0 0.00 0.00 0.00 61 1018.1
20260902231003 32 29 0.0 0.0 0.00 0.00 0.00 63 1018.1
20260902230003 32 29 0.0 0.0 0.00 0.00 0.00 61 1018.2
20260902225003 32 29 0.0 0.0 0.00 0.00 0.00 62 1018.2
20260902224002 32 29 0.0 0.0 0.00 0.00 0.00 61 1018.4
20260902182003 32 5 0.0 4.8 0.00 0.00 0.00 57 1020.1
20260902181002 32 5 1.6 4.8 0.00 0.00 0.00 58 1020.2
20260902180005 31 5 3.2 4.8 0.00 0.00 0.00 60 1020.1
20260902175003 31 5 1.6 4.8 0.00 0.00 0.00 61 1020.2
20260902174003 30 5 3.2 4.8 0.00 0.00 0.00 65 1020.4
20260902173003 31 5 1.6 8.0 0.00 0.00 0.00 61 1020.6
20260902172002 31 5 4.8 8.0 0.00 0.00 0.00 64 1020.7
20260902171003 31 5 8.0 12.9 0.00 0.00 0.00 61 1020.7
20260902170003 31 5 4.8 14.5 0.00 0.00 0.00 62 1020.8
20260902165003 31 5 4.8 9.7 0.00 0.00 0.00 61 1020.9
20260902164003 31 5 1.6 4.8 0.00 0.00 0.00 62 1020.9
20260902163003 31 5 4.8 9.7 0.00 0.00 0.00 60 1021.0
20260902162003 31 5 8.0 9.7 0.00 0.00 0.00 62 1021.2
20260902121003 20 12 0.0 0.0 0.00 0.00 0.00 90 1021.3
20260902120003 20 12 0.0 0.0 0.00 0.00 0.00 91 1021.2
20260902115003 20 12 0.0 0.0 0.00 0.00 0.00 91 1021.1
20260902114003 20 12 0.0 0.0 0.00 0.00 0.00 91 1021.1
20260902113003 20 12 0.0 0.0 0.00 0.00 0.00 91 1021.0
20260902112003 20 12 0.0 0.0 0.00 0.00 0.00 91 1020.8
20260902111003 20 12 0.0 0.0 0.00 0.00 0.00 91 1020.8
20260902110004 20 12 0.0 0.0 0.00 0.00 0.00 91 1020.6
20260902105002 20 12 0.0 0.0 0.00 0.00 0.00 91 1020.6
20260902104002 20 12 0.0 0.0 0.00 0.00 0.00 91 1020.5
20260902103003 20 12 0.0 0.0 0.00 0.00 0.00 91 1020.5
20260902102003 20 12 0.0 0.0 0.00 0.00 0.00 91 1020.5
20260902101003 21 12 0.0 0.0 0.00 0.00 0.00 91 1020.4
20260902100003 21 12 0.0 0.0 0.00 0.00 0.00 91 1020.4
20260902095003 21 12 0.0 0.0 0.00 0.00 0.00 91 1020.3
20260902094003 21 12 0.0 0.0 0.00 0.00 0.00 91 1020.2
20260902093003 21 12 0.0 0.0 0.00 0.00 0.00 91 1020.2
20260902082002 21 12 0.0 0.0 0.00 0.00 0.00 91 1019.8
20260902081003 21 12 0.0 0.0 0.00 0.00 0.00 91 1019.7
20260902080002 21 12 0.0 0.0 0.00 0.00 0.00 91 1019.8
20260902075003 21 12 0.0 0.0 0.00 0.00 0.00 91 1019.7
20260902074003 21 12 0.0 0.0 0.00 0.00 0.00 91 1019.7
20260902073003 21 12 0.0 0.0 0.00 0.00 0.00 90 1019.7